Date String (YYYY-MM-DD hh:mm:ss) UTC,Instrument flags,Ambient pressure (hPa),Sample flow (lpm),Bypass flow (lpm),Sample temperature (°C),Ambient temperature (°C),ASC tube jacket temperature (°C),LED temperature (°C),Box temperature (°C),Sample RH (%),Span deviation,Mass concentration (μg/m³),Mass concentration (μg/m³),Mass concentration (μg/m³)
DateTimeUTC,F1_M11,P_M11,Q1_M11,Q2_M11,T1_M11,T2_M11,T3_M11,T4_M11,T5_M11,U1_M11,ZSPAN_M11,X0_M11,X2_M11,X1_M11
2022-06-11 11:00:00,,0824.7,5.00,0.00,29.7,28.8,00.0,38.6,31.6,16.0,0000.0,0013.51,0005.20,0003.53
2022-06-11 11:01:00,,0824.7,4.99,0.00,29.7,28.8,00.0,38.6,31.6,16.0,0000.0,0013.47,0005.26,0003.53
2022-06-11 11:02:00,,0824.6,5.01,0.00,29.8,28.9,00.0,38.6,31.7,15.9,0000.0,0013.09,0005.27,0003.53
2022-06-11 11:03:00,,0824.6,5.00,0.00,29.8,28.9,00.0,38.6,31.7,16.1,0000.0,0013.15,0005.26,0003.51
2022-06-11 11:04:00,,0824.7,4.99,0.00,29.8,28.9,00.0,38.6,31.7,16.1,0000.0,0013.04,0005.22,0003.50
2022-06-11 11:05:00,,0824.7,5.01,0.00,29.8,28.9,00.0,38.6,31.7,16.4,0000.0,0013.36,0005.25,0003.50
2022-06-11 11:06:00,,0824.7,5.00,0.00,29.8,28.9,00.0,38.6,31.7,16.4,0000.0,0013.76,0005.27,0003.50
2022-06-11 11:07:00,,0824.7,5.01,0.00,29.8,28.9,00.0,38.7,31.7,16.1,0000.0,0013.65,0005.25,0003.49
2022-06-11 11:08:00,,0824.7,5.01,0.00,29.8,28.9,00.0,38.7,31.7,16.1,0000.0,0013.56,0005.25,0003.47
2022-06-11 11:09:00,,0824.6,5.00,0.00,29.8,28.9,00.0,38.7,31.7,16.1,0000.0,0013.58,0005.30,0003.47
2022-06-11 11:10:00,,0824.7,5.00,0.00,29.8,28.9,00.0,38.7,31.8,15.9,0000.0,0013.71,0005.32,0003.47
2022-06-11 11:11:00,,0824.6,5.00,0.00,29.9,29.0,00.0,38.7,31.8,16.0,0000.0,0014.29,0005.34,0003.47
2022-06-11 11:12:00,,0824.8,5.00,0.00,29.9,29.0,00.0,38.7,31.7,16.0,0000.0,0014.04,0005.34,0003.47
2022-06-11 11:13:00,,0824.7,5.01,0.00,29.9,29.0,00.0,38.7,31.7,16.0,0000.0,0014.30,0005.37,0003.48
2022-06-11 11:14:00,,0824.7,5.01,0.00,29.9,29.0,00.0,38.7,31.8,15.8,0000.0,0014.45,0005.40,0003.50
2022-06-11 11:15:00,,0824.7,5.01,0.00,29.9,29.0,00.0,38.7,31.8,16.2,0000.0,0015.18,0005.40,0003.52
2022-06-11 11:16:00,,0824.7,4.99,0.00,29.9,29.0,00.0,38.8,31.8,16.4,0000.0,0016.07,0005.42,0003.54
2022-06-11 11:17:00,,0824.7,4.99,0.00,29.9,29.1,00.0,38.8,31.8,16.3,0000.0,0015.70,0005.36,0003.54
2022-06-11 11:18:00,,0824.8,5.00,0.00,29.9,29.1,00.0,38.8,31.8,16.1,0000.0,0015.40,0005.34,0003.54
2022-06-11 11:19:00,,0824.8,5.00,0.00,29.9,29.1,00.0,38.8,31.8,16.1,0000.0,0016.07,0005.34,0003.55
2022-06-11 11:20:00,,0824.8,5.00,0.00,30.0,29.1,00.0,38.8,31.9,16.1,0000.0,0016.03,0005.29,0003.56
2022-06-11 11:21:00,,0824.8,5.00,0.00,30.0,29.1,00.0,38.8,31.9,16.2,0000.0,0016.54,0005.35,0003.58
2022-06-11 11:22:00,,0824.8,4.99,0.00,30.0,29.1,00.0,38.8,31.9,15.9,0000.0,0016.47,0005.36,0003.61
2022-06-11 11:23:00,,0824.9,4.99,0.00,30.0,29.1,00.0,38.8,31.9,16.0,0000.0,0016.51,0005.35,0003.61
2022-06-11 11:24:00,,0824.8,5.00,0.00,30.0,28.6,00.0,38.8,31.8,16.2,0000.0,0016.00,0005.29,0003.62
2022-06-11 11:25:00,,0824.7,5.01,0.00,29.9,27.8,00.0,38.7,31.6,16.2,0000.0,0016.21,0005.21,0003.62
2022-06-11 11:26:00,,0824.7,4.99,0.00,29.8,27.6,00.0,38.7,31.4,16.2,0000.0,0015.61,0005.23,0003.61
2022-06-11 11:27:00,,0824.7,5.00,0.00,29.7,27.6,00.0,38.7,31.3,16.3,0000.0,0014.40,0005.22,0003.60
2022-06-11 11:28:00,,0824.7,5.01,0.00,29.6,27.6,00.0,38.6,31.3,16.3,0000.0,0014.25,0005.26,0003.62
2022-06-11 11:29:00,,0824.8,5.00,0.00,29.6,27.7,00.0,38.6,31.3,16.2,0000.0,0014.78,0005.34,0003.63
2022-06-11 11:30:00,,0824.8,4.98,0.00,29.6,27.8,00.0,38.6,31.3,16.2,0000.0,0015.25,0005.37,0003.64
2022-06-11 11:31:00,,0824.8,5.01,0.00,29.6,27.9,00.0,38.6,31.3,16.2,0000.0,0015.25,0005.35,0003.64
2022-06-11 11:32:00,,0824.9,4.99,0.00,29.6,28.0,00.0,38.6,31.4,17.2,0000.0,0015.24,0005.34,0003.63
2022-06-11 11:33:00,,0824.9,5.00,0.00,29.6,28.1,00.0,38.6,31.4,17.5,0000.0,0016.57,0005.35,0003.62
2022-06-11 11:34:00,,0824.9,5.00,0.00,29.6,28.2,00.0,38.5,31.4,17.0,0000.0,0016.40,0005.39,0003.62
2022-06-11 11:35:00,,0824.9,5.00,0.00,29.6,28.3,00.0,38.5,31.4,16.6,0000.0,0016.52,0005.42,0003.61
2022-06-11 11:36:00,,0824.8,5.01,0.00,29.6,28.3,00.0,38.5,31.4,16.4,0000.0,0016.13,0005.47,0003.61
2022-06-11 11:37:00,,0824.8,5.01,0.00,29.6,28.4,00.0,38.5,31.4,16.4,0000.0,0015.98,0005.48,0003.61
2022-06-11 11:38:00,,0824.8,5.00,0.00,29.6,28.5,00.0,38.5,31.4,16.2,0000.0,0016.01,0005.48,0003.60
2022-06-11 11:39:00,,0824.8,4.99,0.00,29.6,28.5,00.0,38.5,31.5,16.2,0000.0,0016.01,0005.49,0003.60
2022-06-11 11:40:00,,0824.8,5.00,0.00,29.6,28.5,00.0,38.5,31.5,16.1,0000.0,0016.10,0005.45,0003.59
2022-06-11 11:41:00,,0824.8,5.01,0.00,29.6,28.6,00.0,38.5,31.5,16.3,0000.0,0015.23,0005.37,0003.57
2022-06-11 11:42:00,,0824.8,5.00,0.00,29.6,28.6,00.0,38.5,31.5,16.4,0000.0,0014.99,0005.38,0003.56
2022-06-11 11:43:00,,0824.8,4.99,0.00,29.6,28.6,00.0,38.5,31.5,16.3,0000.0,0016.20,0005.36,0003.56
2022-06-11 11:44:00,,0824.9,5.00,0.00,29.6,28.7,00.0,38.5,31.5,16.3,0000.0,0014.51,0005.29,0003.55
2022-06-11 11:45:00,,0824.9,5.00,0.00,29.7,28.7,00.0,38.5,31.6,16.3,0000.0,0014.23,0005.23,0003.54
2022-06-11 11:46:00,,0824.9,5.01,0.00,29.7,28.7,00.0,38.5,31.6,16.2,0000.0,0013.93,0005.22,0003.54
2022-06-11 11:47:00,,0824.9,5.00,0.00,29.7,28.7,00.0,38.6,31.6,16.2,0000.0,0013.94,0005.27,0003.55
2022-06-11 11:48:00,,0824.9,5.00,0.00,29.7,28.7,00.0,38.6,31.6,16.3,0000.0,0013.88,0005.24,0003.55
2022-06-11 11:49:00,,0824.9,5.00,0.00,29.7,28.8,00.0,38.6,31.6,16.3,0000.0,0013.90,0005.24,0003.57
2022-06-11 11:50:00,,0824.9,5.01,0.00,29.7,28.8,00.0,38.6,31.6,16.4,0000.0,0013.82,0005.21,0003.57
2022-06-11 11:51:00,,0824.9,5.01,0.00,29.7,28.8,00.0,38.6,31.6,16.7,0000.0,0013.54,0005.19,0003.57
2022-06-11 11:52:00,,0824.9,5.00,0.00,29.7,28.8,00.0,38.6,31.6,17.0,0000.0,0013.30,0005.20,0003.58
2022-06-11 11:53:00,,0824.9,4.99,0.00,29.8,28.8,00.0,38.6,31.7,16.8,0000.0,0013.37,0005.22,0003.60
2022-06-11 11:54:00,,0824.9,5.00,0.00,29.8,28.8,00.0,38.6,31.7,16.7,0000.0,0012.29,0005.21,0003.61
2022-06-11 11:55:00,,0825.0,5.00,0.00,29.8,28.8,00.0,38.6,31.7,16.5,0000.0,0013.45,0005.25,0003.63
2022-06-11 11:56:00,,0825.0,5.00,0.00,29.8,28.8,00.0,38.6,31.7,16.4,0000.0,0013.75,0005.30,0003.64
2022-06-11 11:57:00,,0824.9,4.99,0.00,29.8,28.8,00.0,38.6,31.7,16.4,0000.0,0013.95,0005.31,0003.64
2022-06-11 11:58:00,,0825.0,5.00,0.00,29.8,28.9,00.0,38.7,31.7,16.4,0000.0,0014.13,0005.27,0003.64
2022-06-11 11:59:00,,0825.0,5.00,0.00,29.8,28.9,00.0,38.7,31.7,16.5,0000.0,0014.09,0005.27,0003.64
